Time,TemperatureF,DewpointF,PressureIn,WindDirection,WindDirectionDegrees,WindSpeedMPH,WindSpeedGustMPH,Humidity,HourlyPrecipIn,Conditions,Clouds,dailyrainin,SoftwareType,DateUTC
2013-03-12 00:03:00,65.0,59.0,29.95,SSE,168,2.0,7.0,81,0.00,,,0.00,,2013-03-12 04:03:00,
2013-03-12 00:13:00,65.0,59.0,29.95,SSE,168,2.0,7.0,81,0.00,,,0.00,,2013-03-12 04:13:00,
2013-03-12 00:22:00,66.0,59.0,29.95,SE,146,1.0,10.0,79,0.00,,,0.00,,2013-03-12 04:22:00,
2013-03-12 00:32:00,66.0,59.0,29.95,SE,146,1.0,10.0,79,0.00,,,0.00,,2013-03-12 04:32:00,
2013-03-12 00:43:00,66.0,59.0,29.95,SE,146,1.0,10.0,79,0.00,,,0.00,,2013-03-12 04:43:00,
2013-03-12 00:52:00,65.0,59.0,29.93,SSE,157,3.0,12.0,80,0.00,,,0.00,,2013-03-12 04:52:00,
2013-03-12 01:03:00,65.0,59.0,29.93,SE,130,3.0,9.0,80,0.00,,,0.00,,2013-03-12 05:03:00,
2013-03-12 01:12:00,65.0,59.0,29.93,SE,130,3.0,9.0,80,0.00,,,0.00,,2013-03-12 05:12:00,
2013-03-12 01:22:00,65.0,59.0,29.93,South,169,1.0,7.0,81,0.00,,,0.00,,2013-03-12 05:22:00,
2013-03-12 01:32:00,65.0,60.0,29.94,SSE,150,1.0,8.0,83,0.00,,,0.00,,2013-03-12 05:32:00,
2013-03-12 01:42:00,65.0,60.0,29.94,SSE,150,1.0,8.0,83,0.00,,,0.00,,2013-03-12 05:42:00,
2013-03-12 01:52:00,66.0,61.0,29.94,SSE,148,1.0,8.0,83,0.00,,,0.00,,2013-03-12 05:52:00,
2013-03-12 02:02:00,66.0,61.0,29.93,SSE,159,0.0,7.0,83,0.00,,,0.00,,2013-03-12 06:02:00,
2013-03-12 02:12:00,66.0,61.0,29.93,SSE,159,0.0,7.0,83,0.00,,,0.00,,2013-03-12 06:12:00,
2013-03-12 02:22:00,65.0,60.0,29.94,SSW,211,1.0,4.0,85,0.00,,,0.00,,2013-03-12 06:22:00,
2013-03-12 02:32:00,66.0,61.0,29.96,SSW,210,2.0,7.0,84,0.00,,,0.00,,2013-03-12 06:32:00,
2013-03-12 02:42:00,66.0,61.0,29.96,SSW,210,2.0,7.0,84,0.00,,,0.00,,2013-03-12 06:42:00,
2013-03-12 02:52:00,66.0,61.0,29.96,South,186,1.0,8.0,84,0.00,,,0.00,,2013-03-12 06:52:00,
2013-03-12 03:02:00,66.0,61.0,29.95,SW,231,1.0,5.0,85,0.00,,,0.00,,2013-03-12 07:02:00,
2013-03-12 03:12:00,66.0,61.0,29.95,SW,231,1.0,5.0,85,0.00,,,0.00,,2013-03-12 07:12:00,
2013-03-12 03:22:00,66.0,61.0,29.94,ESE,117,2.0,7.0,85,0.00,,,0.00,,2013-03-12 07:22:00,
2013-03-12 03:32:00,66.0,61.0,29.93,South,169,4.0,10.0,84,0.00,,,0.00,,2013-03-12 07:32:00,
2013-03-12 03:42:00,66.0,61.0,29.93,South,169,4.0,10.0,84,0.00,,,0.00,,2013-03-12 07:42:00,
2013-03-12 03:52:00,66.0,61.0,29.93,SSW,199,2.0,12.0,85,0.00,,,0.00,,2013-03-12 07:52:00,
2013-03-12 04:02:00,66.0,61.0,29.91,SSE,152,3.0,10.0,85,0.00,,,0.00,,2013-03-12 08:02:00,
2013-03-12 04:13:00,66.0,61.0,29.91,SSE,152,3.0,10.0,85,0.00,,,0.00,,2013-03-12 08:13:00,
2013-03-12 04:22:00,66.0,62.0,29.91,South,172,3.0,10.0,86,0.00,,,0.00,,2013-03-12 08:22:00,
2013-03-12 04:33:00,66.0,62.0,29.91,SSE,159,2.0,10.0,86,0.00,,,0.00,,2013-03-12 08:33:00,
2013-03-12 04:42:00,66.0,62.0,29.91,SSE,159,2.0,10.0,86,0.00,,,0.00,,2013-03-12 08:42:00,
2013-03-12 04:52:00,66.0,62.0,29.91,SSE,158,4.0,12.0,86,0.00,,,0.00,,2013-03-12 08:52:00,
2013-03-12 05:03:00,66.0,62.0,29.89,SSW,198,3.0,10.0,87,0.00,,,0.00,,2013-03-12 09:03:00,
2013-03-12 05:12:00,66.0,62.0,29.89,SSW,198,3.0,10.0,87,0.00,,,0.00,,2013-03-12 09:12:00,
2013-03-12 05:22:00,66.0,62.0,29.89,South,172,4.0,11.0,87,0.00,,,0.00,,2013-03-12 09:22:00,
2013-03-12 05:33:00,65.0,61.0,29.89,South,169,2.0,11.0,87,0.00,,,0.00,,2013-03-12 09:33:00,
2013-03-12 05:42:00,65.0,61.0,29.89,South,169,2.0,11.0,87,0.00,,,0.00,,2013-03-12 09:42:00,
2013-03-12 05:52:00,65.0,61.0,29.90,SSE,148,2.0,8.0,88,0.00,,,0.00,,2013-03-12 09:52:00,
2013-03-12 06:02:00,65.0,62.0,29.90,SSE,147,3.0,8.0,89,0.00,,,0.00,,2013-03-12 10:02:00,
2013-03-12 06:12:00,65.0,62.0,29.90,SSE,147,3.0,8.0,89,0.00,,,0.00,,2013-03-12 10:12:00,
2013-03-12 06:22:00,65.0,62.0,29.90,South,173,2.0,8.0,89,0.00,,,0.00,,2013-03-12 10:22:00,
2013-03-12 06:33:00,65.0,62.0,29.91,South,177,3.0,11.0,89,0.00,,,0.00,,2013-03-12 10:33:00,
2013-03-12 06:42:00,65.0,62.0,29.91,South,177,3.0,11.0,89,0.00,,,0.00,,2013-03-12 10:42:00,
2013-03-12 06:52:00,65.0,62.0,29.91,South,169,2.0,10.0,89,0.00,,,0.00,,2013-03-12 10:52:00,
2013-03-12 07:02:00,65.0,62.0,29.90,SSE,157,2.0,7.0,90,0.00,,,0.00,,2013-03-12 11:02:00,
2013-03-12 07:12:00,65.0,62.0,29.90,SSE,157,2.0,7.0,90,0.00,,,0.00,,2013-03-12 11:12:00,
2013-03-12 07:22:00,64.0,62.0,29.91,SSE,164,2.0,8.0,92,0.01,,,0.01,,2013-03-12 11:22:00,
2013-03-12 07:32:00,64.0,62.0,29.90,South,172,2.0,7.0,93,0.01,,,0.01,,2013-03-12 11:32:00,
2013-03-12 07:42:00,64.0,62.0,29.90,South,172,2.0,7.0,93,0.01,,,0.01,,2013-03-12 11:42:00,
2013-03-12 07:52:00,64.0,62.0,29.91,SSE,161,2.0,7.0,93,0.01,,,0.01,,2013-03-12 11:52:00,
2013-03-12 08:03:00,65.0,63.0,29.92,South,188,2.0,7.0,93,0.01,,,0.01,,2013-03-12 12:03:00,
2013-03-12 08:12:00,65.0,63.0,29.92,South,188,2.0,7.0,93,0.01,,,0.01,,2013-03-12 12:12:00,
2013-03-12 08:22:00,65.0,63.0,29.92,SSW,211,2.0,8.0,92,0.02,,,0.03,,2013-03-12 12:22:00,
2013-03-12 08:32:00,64.0,62.0,29.93,SSE,162,1.0,8.0,93,0.09,,,0.10,,2013-03-12 12:32:00,
2013-03-12 08:42:00,64.0,62.0,29.93,SSE,162,1.0,8.0,93,0.09,,,0.10,,2013-03-12 12:42:00,
2013-03-12 08:52:00,64.0,62.0,29.93,SSE,164,2.0,6.0,94,0.12,,,0.13,,2013-03-12 12:52:00,
2013-03-12 09:02:00,64.0,62.0,29.93,SSE,164,2.0,6.0,94,0.12,,,0.13,,2013-03-12 13:02:00,
2013-03-12 09:12:00,64.0,62.0,29.93,SSE,164,2.0,6.0,94,0.12,,,0.13,,2013-03-12 13:12:00,
2013-03-12 09:22:00,64.0,63.0,29.94,SE,146,2.0,7.0,95,0.17,,,0.20,,2013-03-12 13:22:00,
2013-03-12 09:33:00,64.0,63.0,29.94,South,176,2.0,7.0,95,0.12,,,0.22,,2013-03-12 13:33:00,
2013-03-12 09:43:00,64.0,63.0,29.94,South,176,2.0,7.0,95,0.12,,,0.22,,2013-03-12 13:43:00,
2013-03-12 09:52:00,64.0,63.0,29.95,South,182,1.0,6.0,96,0.12,,,0.25,,2013-03-12 13:52:00,
2013-03-12 10:02:00,65.0,64.0,29.95,South,169,3.0,9.0,96,0.13,,,0.28,,2013-03-12 14:02:00,
2013-03-12 10:12:00,65.0,64.0,29.95,South,169,3.0,9.0,96,0.13,,,0.28,,2013-03-12 14:12:00,
2013-03-12 10:22:00,65.0,64.0,29.95,SSE,167,2.0,8.0,96,0.19,,,0.39,,2013-03-12 14:22:00,
2013-03-12 10:33:00,65.0,64.0,29.95,SSE,159,3.0,9.0,96,0.19,,,0.41,,2013-03-12 14:33:00,
2013-03-12 10:42:00,65.0,64.0,29.95,SSE,159,3.0,9.0,96,0.19,,,0.41,,2013-03-12 14:42:00,
2013-03-12 10:53:00,65.0,64.0,29.95,SW,223,3.0,8.0,97,0.17,,,0.42,,2013-03-12 14:53:00,
2013-03-12 11:03:00,66.0,65.0,29.95,SW,233,3.0,12.0,97,0.14,,,0.43,,2013-03-12 15:03:00,
2013-03-12 11:13:00,66.0,65.0,29.95,SW,233,3.0,12.0,97,0.14,,,0.43,,2013-03-12 15:13:00,
2013-03-12 11:22:00,66.0,65.0,29.96,WSW,241,4.0,13.0,97,0.04,,,0.43,,2013-03-12 15:22:00,
2013-03-12 11:32:00,67.0,66.0,29.96,SSW,192,5.0,13.0,97,0.03,,,0.44,,2013-03-12 15:32:00,
2013-03-12 11:42:00,67.0,66.0,29.96,SSW,192,5.0,13.0,97,0.03,,,0.44,,2013-03-12 15:42:00,
2013-03-12 11:53:00,67.0,66.0,29.95,SSW,207,4.0,13.0,97,0.02,,,0.44,,2013-03-12 15:53:00,
2013-03-12 12:03:00,68.0,67.0,29.96,SW,217,6.0,14.0,96,0.01,,,0.44,,2013-03-12 16:03:00,
2013-03-12 12:12:00,68.0,67.0,29.96,SW,217,6.0,14.0,96,0.01,,,0.44,,2013-03-12 16:12:00,
2013-03-12 12:23:00,68.0,67.0,29.96,South,188,4.0,9.0,96,0.01,,,0.44,,2013-03-12 16:23:00,
2013-03-12 12:33:00,69.0,68.0,29.96,SSE,154,6.0,14.0,95,0.00,,,0.44,,2013-03-12 16:33:00,
2013-03-12 12:43:00,69.0,68.0,29.96,SSE,154,6.0,14.0,95,0.00,,,0.44,,2013-03-12 16:43:00,
2013-03-12 12:52:00,69.0,67.0,29.96,SW,217,3.0,14.0,94,0.00,,,0.44,,2013-03-12 16:52:00,
2013-03-12 13:03:00,69.0,67.0,29.96,West,281,6.0,11.0,94,0.00,,,0.44,,2013-03-12 17:03:00,
2013-03-12 13:13:00,69.0,67.0,29.96,West,281,6.0,11.0,94,0.00,,,0.44,,2013-03-12 17:13:00,
2013-03-12 13:23:00,69.0,67.0,29.96,SW,236,2.0,10.0,93,0.00,,,0.44,,2013-03-12 17:23:00,
2013-03-12 13:34:00,69.0,67.0,29.96,NW,320,6.0,18.0,93,0.00,,,0.44,,2013-03-12 17:34:00,
2013-03-12 13:43:00,69.0,67.0,29.96,NW,320,6.0,18.0,93,0.00,,,0.44,,2013-03-12 17:43:00,
2013-03-12 13:53:00,67.0,65.0,29.96,WNW,287,5.0,11.0,94,0.00,,,0.44,,2013-03-12 17:53:00,
2013-03-12 14:03:00,66.0,65.0,29.96,West,259,5.0,12.0,95,0.00,,,0.44,,2013-03-12 18:03:00,
2013-03-12 14:13:00,65.0,64.0,29.96,West,268,3.0,9.0,95,0.00,,,0.44,,2013-03-12 18:13:00,
2013-03-12 14:23:00,65.0,64.0,29.96,West,268,3.0,9.0,95,0.00,,,0.44,,2013-03-12 18:23:00,
2013-03-12 14:33:00,65.0,64.0,29.95,West,271,5.0,11.0,96,0.00,,,0.44,,2013-03-12 18:33:00,
2013-03-12 14:42:00,65.0,64.0,29.95,West,271,5.0,11.0,96,0.00,,,0.44,,2013-03-12 18:42:00,
2013-03-12 14:53:00,64.0,63.0,29.96,WNW,286,4.0,11.0,95,0.00,,,0.44,,2013-03-12 18:53:00,
2013-03-12 15:04:00,63.0,62.0,29.95,West,269,5.0,11.0,95,0.00,,,0.44,,2013-03-12 19:04:00,
2013-03-12 15:13:00,63.0,62.0,29.95,West,269,5.0,11.0,95,0.00,,,0.44,,2013-03-12 19:13:00,
2013-03-12 15:23:00,65.0,64.0,29.95,West,278,5.0,10.0,95,0.00,,,0.44,,2013-03-12 19:23:00,
2013-03-12 15:33:00,65.0,64.0,29.95,West,278,5.0,10.0,95,0.00,,,0.44,,2013-03-12 19:33:00,
2013-03-12 15:43:00,65.0,64.0,29.95,West,278,5.0,10.0,95,0.00,,,0.44,,2013-03-12 19:43:00,
2013-03-12 15:53:00,66.0,64.0,29.94,WSW,247,5.0,8.0,92,0.00,,,0.44,,2013-03-12 19:53:00,
2013-03-12 16:02:00,67.0,64.0,29.94,WSW,244,1.0,7.0,90,0.00,,,0.44,,2013-03-12 20:02:00,
2013-03-12 16:13:00,67.0,64.0,29.94,WSW,244,1.0,7.0,90,0.00,,,0.44,,2013-03-12 20:13:00,
2013-03-12 16:23:00,68.0,64.0,29.94,West,270,4.0,8.0,88,0.00,,,0.44,,2013-03-12 20:23:00,
2013-03-12 16:33:00,69.0,65.0,29.93,WSW,252,3.0,7.0,87,0.00,,,0.44,,2013-03-12 20:33:00,
2013-03-12 16:42:00,69.0,65.0,29.93,WSW,252,3.0,7.0,87,0.00,,,0.44,,2013-03-12 20:42:00,
2013-03-12 16:52:00,69.0,64.0,29.94,SW,226,6.0,11.0,85,0.00,,,0.44,,2013-03-12 20:52:00,
2013-03-12 17:03:00,69.0,64.0,29.94,SW,226,6.0,11.0,85,0.00,,,0.44,,2013-03-12 21:03:00,
2013-03-12 17:13:00,69.0,64.0,29.94,SW,226,6.0,11.0,85,0.00,,,0.44,,2013-03-12 21:13:00,
2013-03-12 17:23:00,69.0,64.0,29.94,West,265,6.0,12.0,84,0.00,,,0.44,,2013-03-12 21:23:00,
2013-03-12 17:33:00,68.0,63.0,29.93,WNW,283,6.0,10.0,83,0.00,,,0.44,,2013-03-12 21:33:00,
2013-03-12 17:43:00,68.0,63.0,29.93,WNW,283,6.0,10.0,83,0.00,,,0.44,,2013-03-12 21:43:00,
2013-03-12 17:52:00,68.0,63.0,29.94,West,259,5.0,11.0,83,0.00,,,0.44,,2013-03-12 21:52:00,
2013-03-12 18:03:00,67.0,62.0,29.94,NNW,344,3.0,12.0,83,0.00,,,0.44,,2013-03-12 22:03:00,
2013-03-12 18:13:00,67.0,62.0,29.94,NNW,344,3.0,12.0,83,0.00,,,0.44,,2013-03-12 22:13:00,
2013-03-12 18:23:00,66.0,60.0,29.95,WNW,300,4.0,10.0,82,0.00,,,0.44,,2013-03-12 22:23:00,
2013-03-12 18:33:00,66.0,60.0,29.95,WNW,298,5.0,9.0,82,0.00,,,0.44,,2013-03-12 22:33:00,
2013-03-12 18:43:00,66.0,60.0,29.95,WNW,298,5.0,9.0,82,0.00,,,0.44,,2013-03-12 22:43:00,
2013-03-12 18:53:00,65.0,60.0,29.95,WNW,293,3.0,9.0,83,0.00,,,0.44,,2013-03-12 22:53:00,
2013-03-12 19:03:00,64.0,58.0,29.95,West,277,3.0,11.0,81,0.00,,,0.44,,2013-03-12 23:03:00,
2013-03-12 19:12:00,64.0,58.0,29.95,West,277,3.0,11.0,81,0.00,,,0.44,,2013-03-12 23:12:00,
2013-03-12 19:23:00,63.0,58.0,29.96,West,277,4.0,8.0,83,0.00,,,0.44,,2013-03-12 23:23:00,
2013-03-12 19:34:00,63.0,58.0,29.96,WNW,284,2.0,6.0,85,0.00,,,0.44,,2013-03-12 23:34:00,
2013-03-12 19:43:00,63.0,58.0,29.96,WNW,284,2.0,6.0,85,0.00,,,0.44,,2013-03-12 23:43:00,
2013-03-12 19:52:00,62.0,58.0,29.97,WNW,290,4.0,11.0,86,0.00,,,0.44,,2013-03-12 23:52:00,
2013-03-12 20:03:00,61.0,56.0,29.97,WNW,298,5.0,12.0,83,0.00,,,0.44,,2013-03-13 00:03:00,
2013-03-12 20:13:00,61.0,56.0,29.97,WNW,298,5.0,12.0,83,0.00,,,0.44,,2013-03-13 00:13:00,
2013-03-12 20:23:00,60.0,55.0,29.98,NW,309,3.0,9.0,84,0.00,,,0.44,,2013-03-13 00:23:00,
2013-03-12 20:33:00,60.0,56.0,29.98,West,267,2.0,9.0,86,0.00,,,0.44,,2013-03-13 00:33:00,
2013-03-12 20:42:00,60.0,56.0,29.98,West,267,2.0,9.0,86,0.00,,,0.44,,2013-03-13 00:42:00,
2013-03-12 20:53:00,59.0,55.0,29.99,West,269,4.0,7.0,87,0.00,,,0.44,,2013-03-13 00:53:00,
2013-03-12 21:03:00,58.0,54.0,30.00,WNW,302,3.0,9.0,86,0.00,,,0.44,,2013-03-13 01:03:00,
2013-03-12 21:13:00,58.0,54.0,30.00,WNW,302,3.0,9.0,86,0.00,,,0.44,,2013-03-13 01:13:00,
2013-03-12 21:22:00,58.0,54.0,30.01,WNW,301,2.0,6.0,87,0.00,,,0.44,,2013-03-13 01:22:00,
2013-03-12 21:33:00,57.0,53.0,30.01,WNW,286,3.0,9.0,88,0.00,,,0.44,,2013-03-13 01:33:00,
2013-03-12 21:43:00,57.0,53.0,30.01,WNW,286,3.0,9.0,88,0.00,,,0.44,,2013-03-13 01:43:00,
2013-03-12 21:52:00,57.0,54.0,30.02,West,279,2.0,7.0,89,0.00,,,0.44,,2013-03-13 01:52:00,
2013-03-12 22:03:00,56.0,53.0,30.02,NW,306,3.0,6.0,90,0.00,,,0.44,,2013-03-13 02:03:00,
2013-03-12 22:12:00,56.0,53.0,30.02,NW,306,3.0,6.0,90,0.00,,,0.44,,2013-03-13 02:12:00,
2013-03-12 22:22:00,56.0,53.0,30.03,NW,306,3.0,8.0,90,0.00,,,0.44,,2013-03-13 02:22:00,
2013-03-12 22:32:00,56.0,53.0,30.03,NW,305,3.0,8.0,90,0.00,,,0.44,,2013-03-13 02:32:00,
2013-03-12 22:43:00,56.0,53.0,30.03,NW,305,3.0,8.0,90,0.00,,,0.44,,2013-03-13 02:43:00,
2013-03-12 22:52:00,55.0,52.0,30.04,NW,320,2.0,9.0,90,0.00,,,0.44,,2013-03-13 02:52:00,
2013-03-12 23:02:00,55.0,52.0,30.04,NW,317,2.0,7.0,91,0.00,,,0.44,,2013-03-13 03:02:00,
2013-03-12 23:13:00,55.0,52.0,30.04,NW,317,2.0,7.0,91,0.00,,,0.44,,2013-03-13 03:13:00,
2013-03-12 23:22:00,55.0,52.0,30.04,NNW,329,3.0,8.0,91,0.00,,,0.44,,2013-03-13 03:22:00,
2013-03-12 23:32:00,55.0,52.0,30.05,NNW,338,1.0,9.0,91,0.00,,,0.44,,2013-03-13 03:32:00,
2013-03-12 23:42:00,55.0,52.0,30.05,NNW,338,1.0,9.0,91,0.00,,,0.44,,2013-03-13 03:42:00,
2013-03-12 23:53:00,55.0,52.0,30.05,NNW,338,1.0,9.0,91,0.00,,,0.44,,2013-03-13 03:53:00,